Погода в Тюше

Россия / Пермский край     56°38′25″N   56°59′48″E
темп.,
°C
ветер,
м/с
пор.,
м/с
влажн.,
%
обл.,
%
осадки,
мм/ч
давл.,
гПа
погр.,
м
22 апреля, чт
чт2223:00+7юв3662100 0.0 1030109
02:00+5ююв41160100 0.0 1029199
05:00+5ю41359100 0.0 1030310
08:00+6ю61360100 0.0 1030821
11:00+7ю71362100 0.0 10301034
14:00+5ю71291100 0.1 1031828
17:00+6ю51081100 0.1 1031901
20:00+7ююз51073100 0.1 1030796
23 апреля, пт
пт2323:00+4ююз51193100 0.4 1031744
02:00+2ю41197100 4.4 1030529
05:00+2ю4999100 7.8 1030419
08:00+2ю4998100 0.8 1030441
11:00+2ю3798100 1.2 1030440
14:00+3ю2498100 0.1 1030374
17:00+5ююв3488100 0.1 1030515
20:00+5в2489100 0.0 1029105
24 апреля, сб
сб2423:00+3в3594100 0.0 102889
02:00+4всв3791100 0.0 1026159
05:00+4вюв3490100 0.0 102490
08:00+5ююв2495100 0.1 1023109
11:00+5вюв3696100 1.3 1021220
14:00+7вюв3891100 0.1 1019678
17:00+7в3591100 0.6 1018218
20:00+7вюв4982100 0.2 1016321
25 апреля, вс
вс2523:00+6вюв51185100 0.2 1015364
02:00+5юв5988100 0.0 1014740
05:00+5юв5992100 0.3 1013522
08:00+4юв4994100 0.6 1012524
11:00+6ююв4988100 0.6 1011593
14:00+8ю61281100 0.3 10091326
17:00+6юз8138693 3.7 1011909
20:00+6юз5107740 0.4 1013427
26 апреля, пн
пн2623:00+4ююз411860 0.8 1014242
02:00+3ююз4129098 0.0 1015274
05:00+2ю4893100 0.0 1016169
08:00+4юз378797 0.1 1016427
11:00+2ююз3997100 3.8 1016408
14:00+8юз5863100 0.3 10151396
17:00+9юз6851100 0.4 10142204
20:00+6ююз3865100 0.0 1013208